Hourly Weather Viedma

Today, 28 September, Monday

Time Temperature Precipitation Wind Pressure Humidity
00:00 +6°C° 0 mm 1 mps 756 mmHg 73%
01:00 +6°C° 0 mm 1 mps 756 mmHg 69%
02:00 +6°C° 0 mm 2 mps 755 mmHg 64%
03:00 +6°C° 0 mm 2 mps 755 mmHg 58%
04:00 +5°C° 0 mm 3 mps 755 mmHg 52%
05:00 +7°C° 0 mm 3 mps 755 mmHg 46%
06:00 +9°C° 0 mm 3 mps 755 mmHg 41%
07:00 +11°C° 0 mm 4 mps 755 mmHg 36%
08:00 +13°C° 0 mm 5 mps 754 mmHg 31%
09:00 +16°C° 0 mm 5 mps 754 mmHg 27%
10:00 +19°C° 0 mm 5 mps 753 mmHg 24%
11:00 +22°C° 0 mm 6 mps 753 mmHg 20%
12:00 +23°C° 0 mm 5 mps 752 mmHg 19%
13:00 +25°C° 0 mm 5 mps 751 mmHg 18%
14:00 +26°C° 0 mm 5 mps 751 mmHg 17%
15:00 +25°C° 0 mm 4 mps 750 mmHg 20%
16:00 +23°C° 0 mm 4 mps 750 mmHg 23%
17:00 +22°C° 0 mm 4 mps 749 mmHg 26%
18:00 +19°C° 0 mm 3 mps 749 mmHg 28%
19:00 +17°C° 0 mm 3 mps 749 mmHg 31%
20:00 +15°C° 0 mm 2 mps 749 mmHg 33%
21:00 +14°C° 0 mm 3 mps 749 mmHg 30%
22:00 +14°C° 0 mm 3 mps 749 mmHg 26%
23:00 +14°C° 0 mm 3 mps 749 mmHg 23%

Tomorrow, 29 September, Tuesday

Time Temperature Precipitation Wind Pressure Humidity
00:00 +14°C° 0 mm 4 mps 749 mmHg 25%
01:00 +14°C° 0 mm 4 mps 748 mmHg 28%
02:00 +13°C° 0 mm 5 mps 748 mmHg 30%
03:00 +14°C° 0 mm 5 mps 748 mmHg 37%
04:00 +14°C° 0 mm 5 mps 748 mmHg 43%
05:00 +15°C° 0 mm 5 mps 748 mmHg 50%
06:00 +16°C° 0 mm 6 mps 748 mmHg 48%
07:00 +17°C° 0 mm 7 mps 748 mmHg 46%
08:00 +18°C° 0 mm 7 mps 748 mmHg 44%
09:00 +20°C° 0 mm 7 mps 748 mmHg 35%
10:00 +22°C° 0 mm 7 mps 748 mmHg 27%
11:00 +24°C° 0 mm 7 mps 749 mmHg 18%
12:00 +24°C° 0 mm 7 mps 749 mmHg 17%
13:00 +26°C° 0 mm 7 mps 748 mmHg 15%
14:00 +26°C° 0 mm 8 mps 748 mmHg 14%
15:00 +24°C° 0 mm 7 mps 749 mmHg 16%
16:00 +23°C° 0 mm 6 mps 749 mmHg 19%
17:00 +22°C° 0 mm 6 mps 749 mmHg 22%
18:00 +19°C° 0 mm 5 mps 749 mmHg 34%
19:00 +15°C° 0 mm 4 mps 749 mmHg 46%
20:00 +11°C° 0 mm 3 mps 749 mmHg 58%
21:00 +12°C° 0 mm 3 mps 749 mmHg 51%
22:00 +12°C° 0 mm 3 mps 749 mmHg 45%
23:00 +12°C° 0 mm 3 mps 749 mmHg 38%

Day after tomorrow, 30 September, Wednesday

Time Temperature Precipitation Wind Pressure Humidity
00:00 +13°C° 0 mm 4 mps 749 mmHg 33%
01:00 +14°C° 0 mm 5 mps 748 mmHg 28%
02:00 +15°C° 0 mm 6 mps 748 mmHg 22%
03:00 +15°C° 0 mm 6 mps 748 mmHg 25%
04:00 +15°C° 0 mm 7 mps 748 mmHg 27%
05:00 +15°C° 0 mm 7 mps 748 mmHg 29%
06:00 +15°C° 0 mm 9 mps 748 mmHg 28%
07:00 +14°C° 0 mm 10 mps 748 mmHg 27%
08:00 +14°C° 0 mm 12 mps 748 mmHg 26%
09:00 +15°C° 0 mm 12 mps 748 mmHg 24%
10:00 +17°C° 0 mm 12 mps 748 mmHg 23%
11:00 +18°C° 0 mm 12 mps 748 mmHg 21%
12:00 +18°C° 0 mm 12 mps 748 mmHg 23%
13:00 +18°C° 0 mm 11 mps 748 mmHg 24%
14:00 +17°C° 0 mm 11 mps 748 mmHg 26%
15:00 +16°C° 0 mm 11 mps 748 mmHg 25%
16:00 +14°C° 0 mm 11 mps 749 mmHg 24%
17:00 +13°C° 0 mm 11 mps 749 mmHg 22%
18:00 +12°C° 0 mm 9 mps 750 mmHg 27%
19:00 +11°C° 0 mm 7 mps 751 mmHg 31%
20:00 +9°C° 0 mm 5 mps 751 mmHg 35%
21:00 +8°C° 0 mm 5 mps 752 mmHg 45%
22:00 +6°C° 0 mm 5 mps 753 mmHg 56%
23:00 +5°C° 0 mm 4 mps 754 mmHg 66%

1 October, Thursday

Time Temperature Precipitation Wind Pressure Humidity
00:00 +4°C° 0 mm 4 mps 754 mmHg 65%
01:00 +4°C° 0 mm 4 mps 755 mmHg 63%
02:00 +3°C° 0 mm 3 mps 755 mmHg 62%
03:00 +4°C° 0 mm 4 mps 756 mmHg 61%
04:00 +4°C° 0 mm 4 mps 757 mmHg 59%
05:00 +3°C° 0 mm 5 mps 757 mmHg 57%
06:00 +5°C° 0 mm 5 mps 758 mmHg 52%
07:00 +5°C° 0 mm 6 mps 759 mmHg 47%
08:00 +7°C° 0 mm 6 mps 760 mmHg 42%
09:00 +6°C° 0 mm 7 mps 760 mmHg 37%
10:00 +7°C° 0 mm 8 mps 760 mmHg 33%
11:00 +9°C° 0 mm 8 mps 761 mmHg 29%
12:00 +7°C° 0 mm 9 mps 761 mmHg 27%
13:00 +7°C° 0 mm 9 mps 761 mmHg 25%
14:00 +7°C° 0 mm 9 mps 762 mmHg 23%
15:00 +7°C° 0 mm 9 mps 762 mmHg 24%
16:00 +6°C° 0 mm 8 mps 762 mmHg 26%
17:00 +5°C° 0 mm 8 mps 763 mmHg 27%
18:00 +4°C° 0 mm 7 mps 764 mmHg 33%
19:00 +3°C° 0 mm 5 mps 764 mmHg 40%
20:00 +1°C° 0 mm 4 mps 765 mmHg 46%
21:00 +1°C° 0 mm 4 mps 766 mmHg 47%
22:00 +1°C° 0 mm 4 mps 766 mmHg 48%
23:00 +1°C° 0 mm 4 mps 767 mmHg 49%

2 October, Friday

Time Temperature Precipitation Wind Pressure Humidity
00:00 0°C° 0 mm 4 mps 767 mmHg 48%
01:00 0°C° 0 mm 4 mps 768 mmHg 48%
02:00 0°C° 0 mm 4 mps 768 mmHg 47%
03:00 0°C° 0 mm 4 mps 769 mmHg 49%
04:00 0°C° 0 mm 4 mps 769 mmHg 51%
05:00 0°C° 0 mm 4 mps 769 mmHg 53%
06:00 +1°C° 0 mm 5 mps 770 mmHg 49%
07:00 +3°C° 0 mm 6 mps 771 mmHg 44%
08:00 +5°C° 0 mm 7 mps 771 mmHg 39%
09:00 +5°C° 0 mm 7 mps 772 mmHg 37%
10:00 +6°C° 0 mm 7 mps 772 mmHg 35%
11:00 +8°C° 0 mm 6 mps 772 mmHg 33%
12:00 +8°C° 0 mm 6 mps 772 mmHg 33%
13:00 +8°C° 0 mm 6 mps 772 mmHg 33%
14:00 +8°C° 0 mm 5 mps 772 mmHg 33%
15:00 +8°C° 0 mm 5 mps 772 mmHg 35%
16:00 +7°C° 0 mm 5 mps 772 mmHg 38%
17:00 +7°C° 0 mm 4 mps 772 mmHg 40%
18:00 +5°C° 0 mm 3 mps 772 mmHg 48%
19:00 +3°C° 0 mm 3 mps 773 mmHg 56%
20:00 +2°C° 0 mm 2 mps 773 mmHg 63%
21:00 +1°C° 0 mm 2 mps 773 mmHg 64%
22:00 +1°C° 0 mm 2 mps 773 mmHg 65%
23:00 +1°C° 0 mm 2 mps 773 mmHg 66%

3 October, Saturday

Time Temperature Precipitation Wind Pressure Humidity
00:00 -1°C° 0 mm 2 mps 773 mmHg 66%
01:00 -1°C° 0 mm 2 mps 773 mmHg 67%
02:00 -2°C° 0 mm 2 mps 773 mmHg 68%
03:00 -2°C° 0 mm 2 mps 773 mmHg 70%
04:00 -2°C° 0 mm 2 mps 773 mmHg 72%
05:00 -2°C° 0 mm 2 mps 773 mmHg 74%
06:00 +1°C° 0 mm 2 mps 773 mmHg 64%
07:00 +3°C° 0 mm 3 mps 773 mmHg 55%
08:00 +5°C° 0 mm 4 mps 773 mmHg 46%
09:00 +7°C° 0 mm 4 mps 772 mmHg 39%
10:00 +9°C° 0 mm 5 mps 772 mmHg 32%
11:00 +12°C° 0 mm 5 mps 772 mmHg 25%
12:00 +13°C° 0 mm 5 mps 771 mmHg 25%
13:00 +13°C° 0 mm 6 mps 770 mmHg 25%
14:00 +14°C° 0 mm 6 mps 770 mmHg 25%
15:00 +13°C° 0 mm 6 mps 769 mmHg 30%
16:00 +11°C° 0 mm 7 mps 768 mmHg 34%
17:00 +10°C° 0 mm 8 mps 768 mmHg 39%
18:00 +9°C° 0 mm 7 mps 768 mmHg 47%
19:00 +6°C° 0 mm 7 mps 768 mmHg 54%
20:00 +5°C° 0 mm 7 mps 767 mmHg 62%
21:00 +5°C° 0 mm 6 mps 767 mmHg 66%
22:00 +5°C° 0 mm 6 mps 767 mmHg 70%
23:00 +6°C° 0 mm 5 mps 766 mmHg 74%
Show more